{"data":{"norad_id":56806,"intl_designator":"2023-078AR","name":"STARLINK-6072","alt_names":[],"object_type":"PAYLOAD","status":"ACTIVE","operator":null,"country":"US","launch_date":"2023-05-31","launch_site_code":"AFWTR","launch_vehicle":null,"mission":null,"orbit_class":"UNKNOWN","rcs_meters":null,"size_class":null,"mass_kg":null,"dimensions":null,"purposes":["comms"],"wikipedia_slug":null,"has_3d_model":false,"image_url":null,"decayed_at":null,"tle_current":{"epoch":"2026-09-20T10:49:10.190496Z","epoch_age_seconds":121903,"freshness":"FRESH","line1":"1 56806U 23078AR  26263.45081239 -.00000055  00000+0  32166-5 0  9999","line2":"2 56806  70.0004 173.2391 0002356 275.9753  84.1138 14.98330694182810","mean_motion":14.98330694,"eccentricity":0.0002356,"inclination_deg":70.0004,"raan_deg":173.2391,"arg_perigee_deg":275.9753,"mean_anomaly_deg":84.1138,"bstar":3.2166e-6,"rev_number":18281,"period_min":96.106954610649,"perigee_km":570.41627986802,"apogee_km":573.69120974697,"semimajor_km":6950.1907448075,"source":"CELESTRAK","updated_at":"2026-09-21T09:00:33.511561Z"}}}